Satellite: COMPASS
Catalog number: 32787
Epoch time:      10350.73953860
Element set:     856
Inclination:      097.8740 deg
RA of node:       052.7810 deg
Eccentricity:    0.0016676
Arg of perigee:   053.6231 deg
Mean anomaly:     306.6598 deg
Mean motion:   14.82079938 rev/day
Decay rate:       6.01e-06 rev/day^2
Epoch rev:           14253
Checksum:              319

Satellite: AAUSAT2
Catalog number: 32788
Epoch time:      10349.71163816
Element set:    0847
Inclination:      097.8733 deg
RA of node:       051.9410 deg
Eccentricity:    0.0016132
Arg of perigee:   057.8550 deg
Mean anomaly:     302.4195 deg
Mean motion:   14.82236929 rev/day
Decay rate:       6.00e-06 rev/day^2
Epoch rev:           14239
Checksum:              303

Satellite: DO-64
Catalog number: 32789
Epoch time:      10349.89922234
Element set:    0865
Inclination:      097.8819 deg
RA of node:       052.8282 deg
Eccentricity:    0.0016270
Arg of perigee:   056.0056 deg
Mean anomaly:     304.2674 deg
Mean motion:   14.82494479 rev/day
Decay rate:      1.268e-05 rev/day^2
Epoch rev:           14242
Checksum:              338

Satellite: CO-66
Catalog number: 32791
Epoch time:      10349.30432522
Element set:    0849
Inclination:      097.8748 deg
RA of node:       051.3562 deg
Eccentricity:    0.0016983
Arg of perigee:   057.0472 deg
Mean anomaly:     303.2340 deg
Mean motion:   14.81830225 rev/day
Decay rate:       5.09e-06 rev/day^2
Epoch rev:           14227
Checksum:              299

Satellite: RS-30
Catalog number: 32953
Epoch time:      10350.75943174
Element set:     304
Inclination:      082.5019 deg
RA of node:       276.1445 deg
Eccentricity:    0.0020158
Arg of perigee:   064.0936 deg
Mean anomaly:     296.2226 deg
Mean motion:   12.43009850 rev/day
Decay rate:        1.0e-07 rev/day^2
Epoch rev:           11642
Checksum:              266

Satellite: TACSAT-3
Catalog number: 35001
Epoch time:      10349.94007183
Element set:    0470
Inclination:      040.4548 deg
RA of node:       200.7069 deg
Eccentricity:    0.0023887
Arg of perigee:   286.8861 deg
Mean anomaly:     072.9336 deg
Mean motion:   15.44040508 rev/day
Decay rate:      6.644e-05 rev/day^2
Epoch rev:           08871
Checksum:              302

Satellite: PHARMSAT
Catalog number: 35002
Epoch time:      10349.90933454
Element set:    0426
Inclination:      040.4693 deg
RA of node:       198.4274 deg
Eccentricity:    0.0025989
Arg of perigee:   289.2288 deg
Mean anomaly:     070.5729 deg
Mean motion:   15.44322016 rev/day
Decay rate:      6.192e-05 rev/day^2
Epoch rev:           08873
Checksum:              319

Satellite: HAWKSAT1
Catalog number: 35003
Epoch time:      10350.81022139
Element set:     463
Inclination:      040.4575 deg
RA of node:       180.6745 deg
Eccentricity:    0.0024859
Arg of perigee:   318.4999 deg
Mean anomaly:     041.4021 deg
Mean motion:   15.50069056 rev/day
Decay rate:     1.6638e-04 rev/day^2
Epoch rev:            8901
Checksum:              285

Satellite: CP6
Catalog number: 35004
Epoch time:      10350.85145505
Element set:     465
Inclination:      040.4562 deg
RA of node:       177.3966 deg
Eccentricity:    0.0024310
Arg of perigee:   325.1716 deg
Mean anomaly:     034.7498 deg
Mean motion:   15.52004943 rev/day
Decay rate:     2.2595e-04 rev/day^2
Epoch rev:            8904
Checksum:              289

Satellite: AEROCUB3
Catalog number: 35005
Epoch time:      10350.82776191
Element set:     564
Inclination:      040.4589 deg
RA of node:       153.8651 deg
Eccentricity:    0.0023486
Arg of perigee:   348.1753 deg
Mean anomaly:     011.8515 deg
Mean motion:   15.85095971 rev/day
Decay rate:    4.16186e-03 rev/day^2
Epoch rev:            8930
Checksum:              317

Satellite: METEOR-M
Catalog number: 35865
Epoch time:      10350.67821250
Element set:     928
Inclination:      098.7349 deg
RA of node:       042.9371 deg
Eccentricity:    0.0002134
Arg of perigee:   181.7313 deg
Mean anomaly:     178.3809 deg
Mean motion:   14.21833517 rev/day
Decay rate:       1.76e-06 rev/day^2
Epoch rev:            6465
Checksum:              302

Satellite: RS-38
Catalog number: 35869
Epoch time:      10350.77023015
Element set:     940
Inclination:      098.7322 deg
RA of node:       043.0679 deg
Eccentricity:    0.0004281
Arg of perigee:   189.0786 deg
Mean anomaly:     171.0281 deg
Mean motion:   14.21996109 rev/day
Decay rate:       1.77e-06 rev/day^2
Epoch rev:            6467
Checksum:              313

/EX




More information about the Keps mailing list